| time (UTC) | temp F | wind direction | speed MPH | gust MPH | rain 1hr in | rain 24hr in | rain mn in | humidity % | barometer mb |
| 20260505092657 | 73 | 294 | 6.0 | 6.0 | 0.00 | 0.00 | 0.00 | 54 | 1017.1 |
| 20260505092157 | 73 | 277 | 6.0 | 6.0 | 0.00 | 0.00 | 0.00 | 54 | 1017.1 |
| 20260505091657 | 72 | 270 | 1.0 | 6.0 | 0.00 | 0.00 | 0.00 | 54 | 1017.1 |
| 20260505091157 | 72 | 290 | 4.0 | 7.0 | 0.00 | 0.00 | 0.00 | 53 | 1017.1 |
| 20260505090657 | 72 | 324 | 0.0 | 5.0 | 0.00 | 0.00 | 0.00 | 54 | 1017.0 |
| 20260505090158 | 72 | 257 | 1.0 | 7.0 | 0.00 | 0.00 | 0.00 | 54 | 1017.0 |
| 20260505085658 | 73 | 294 | 6.0 | 7.0 | 0.00 | 0.00 | 0.00 | 54 | 1017.0 |
| 20260505085201 | 73 | 309 | 4.0 | 6.0 | 0.00 | 0.00 | 0.00 | 53 | 1017.0 |
| 20260505084657 | 72 | 285 | 4.0 | 7.0 | 0.00 | 0.00 | 0.00 | 54 | 1017.0 |
| 20260505084203 | 72 | 240 | 3.0 | 5.0 | 0.00 | 0.00 | 0.00 | 54 | 1017.0 |
| 20260505083700 | 71 | 304 | 1.0 | 5.0 | 0.00 | 0.00 | 0.00 | 55 | 1017.1 |
| 20260505083200 | 71 | 298 | 4.0 | 5.0 | 0.00 | 0.00 | 0.00 | 56 | 1017.1 |
| 20260505082657 | 71 | 281 | 3.0 | 5.0 | 0.00 | 0.00 | 0.00 | 57 | 1017.1 |
| 20260505082201 | 71 | 272 | 3.0 | 4.0 | 0.00 | 0.00 | 0.00 | 58 | 1017.1 |
| 20260505081700 | 71 | 336 | 0.0 | 5.0 | 0.00 | 0.00 | 0.00 | 58 | 1017.1 |
| 20260505081206 | 71 | 274 | 3.0 | 6.0 | 0.00 | 0.00 | 0.00 | 58 | 1017.0 |
| 20260505080657 | 71 | 261 | 3.0 | 4.0 | 0.00 | 0.00 | 0.00 | 59 | 1017.0 |
| 20260505080157 | 71 | 246 | 2.0 | 4.0 | 0.00 | 0.00 | 0.00 | 59 | 1016.9 |
| 20260505075657 | 71 | 297 | 0.0 | 2.0 | 0.00 | 0.00 | 0.00 | 60 | 1016.9 |
| 20260505075200 | 71 | 269 | 1.0 | 2.0 | 0.00 | 0.00 | 0.00 | 59 | 1016.9 |
| 20260505074657 | 71 | 15 | 1.0 | 3.0 | 0.00 | 0.00 | 0.00 | 59 | 1016.9 |
| 20260505074157 | 70 | 347 | 0.0 | 4.0 | 0.00 | 0.00 | 0.00 | 59 | 1016.9 |
| 20260505073657 | 70 | 312 | 1.0 | 4.0 | 0.00 | 0.00 | 0.00 | 58 | 1017.0 |
| 20260505073157 | 70 | 241 | 0.0 | 3.0 | 0.00 | 0.00 | 0.00 | 58 | 1017.0 |
| 20260505072657 | 70 | 321 | 0.0 | 2.0 | 0.00 | 0.00 | 0.00 | 58 | 1017.1 |
| 20260505072157 | 70 | 259 | 0.0 | 2.0 | 0.00 | 0.00 | 0.00 | 60 | 1017.1 |
| 20260505071700 | 69 | 9 | 1.0 | 3.0 | 0.00 | 0.00 | 0.00 | 60 | 1017.2 |
| 20260505071158 | 69 | 217 | 0.0 | 4.0 | 0.00 | 0.00 | 0.00 | 60 | 1017.2 |
| 20260505070657 | 69 | 269 | 0.0 | 0.0 | 0.00 | 0.00 | 0.00 | 62 | 1017.2 |
| 20260505070157 | 68 | 291 | 0.0 | 0.0 | 0.00 | 0.00 | 0.00 | 63 | 1017.2 |
| 20260505065657 | 68 | 293 | 0.0 | 3.0 | 0.00 | 0.00 | 0.00 | 64 | 1017.1 |
| 20260505065157 | 68 | 268 | 0.0 | 4.0 | 0.00 | 0.00 | 0.00 | 64 | 1017.2 |
| 20260505064700 | 68 | 283 | 0.0 | 5.0 | 0.00 | 0.00 | 0.00 | 65 | 1017.2 |
| 20260505064157 | 68 | 296 | 2.0 | 2.0 | 0.00 | 0.00 | 0.00 | 66 | 1017.2 |
| 20260505063657 | 68 | 296 | 0.0 | 3.0 | 0.00 | 0.00 | 0.00 | 66 | 1017.1 |
| 20260505063157 | 67 | 296 | 1.0 | 2.0 | 0.00 | 0.00 | 0.00 | 66 | 1017.2 |
| 20260505062657 | 68 | 250 | 0.0 | 3.0 | 0.00 | 0.00 | 0.00 | 67 | 1017.2 |
| 20260505062157 | 67 | 250 | 1.0 | 0.0 | 0.00 | 0.00 | 0.00 | 70 | 1017.1 |
| 20260505061657 | 66 | 250 | 0.0 | 2.0 | 0.00 | 0.00 | 0.00 | 72 | 1017.2 |
| 20260505061157 | 66 | 157 | 0.0 | 3.0 | 0.00 | 0.00 | 0.00 | 73 | 1017.2 |
| 20260505060700 | 66 | 157 | 0.0 | 0.0 | 0.00 | 0.00 | 0.00 | 72 | 1017.2 |
| 20260505060157 | 65 | 157 | 0.0 | 1.0 | 0.00 | 0.00 | 0.00 | 71 | 1017.2 |
| 20260505055700 | 65 | 157 | 0.0 | 1.0 | 0.00 | 0.00 | 0.00 | 71 | 1017.2 |
| 20260505055200 | 65 | 157 | 0.0 | 1.0 | 0.00 | 0.00 | 0.00 | 71 | 1017.2 |
| 20260505054700 | 64 | 157 | 0.0 | 0.0 | 0.00 | 0.00 | 0.00 | 72 | 1017.3 |
| 20260505054157 | 63 | 157 | 0.0 | 0.0 | 0.00 | 0.00 | 0.00 | 72 | 1017.2 |
| 20260505053657 | 63 | 157 | 0.0 | 0.0 | 0.00 | 0.00 | 0.00 | 72 | 1017.2 |
| 20260505053157 | 62 | 157 | 0.0 | 0.0 | 0.00 | 0.00 | 0.00 | 72 | 1017.2 |
| 20260505052657 | 62 | 157 | 0.0 | 2.0 | 0.00 | 0.00 | 0.00 | 72 | 1017.2 |
| 20260505052158 | 62 | 157 | 0.0 | 0.0 | 0.00 | 0.00 | 0.00 | 73 | 1017.1 |
| 20260505051658 | 62 | 157 | 0.0 | 2.0 | 0.00 | 0.00 | 0.00 | 74 | 1017.0 |
| 20260505051157 | 61 | 120 | 0.0 | 2.0 | 0.00 | 0.00 | 0.00 | 74 | 1016.9 |
| 20260505050657 | 61 | 120 | 2.0 | 3.0 | 0.00 | 0.00 | 0.00 | 75 | 1016.9 |
| 20260505050206 | 61 | 153 | 0.0 | 5.0 | 0.00 | 0.00 | 0.00 | 75 | 1016.9 |
| 20260505041700 | 61 | 155 | 0.0 | 2.0 | 0.00 | 0.00 | 0.00 | 76 | 1016.5 |
| 20260505041157 | 61 | 153 | 0.0 | 0.0 | 0.00 | 0.00 | 0.00 | 76 | 1016.4 |
| 20260505040657 | 61 | 153 | 0.0 | 0.0 | 0.00 | 0.00 | 0.00 | 76 | 1016.3 |
| 20260505040203 | 61 | 153 | 0.0 | 1.0 | 0.00 | 0.00 | 0.00 | 75 | 1016.3 |
| 20260505035657 | 61 | 153 | 0.0 | 1.0 | 0.00 | 0.00 | 0.00 | 75 | 1016.2 |
| 20260505035157 | 61 | 153 | 0.0 | 3.0 | 0.00 | 0.00 | 0.00 | 75 | 1016.2 |
| 20260505034657 | 61 | 152 | 0.0 | 0.0 | 0.00 | 0.00 | 0.00 | 75 | 1016.2 |
| 20260505034157 | 61 | 152 | 0.0 | 0.0 | 0.00 | 0.00 | 0.00 | 75 | 1016.3 |
| 20260505033658 | 61 | 152 | 0.0 | 0.0 | 0.00 | 0.00 | 0.00 | 75 | 1016.2 |
| 20260505033200 | 61 | 152 | 0.0 | 0.0 | 0.00 | 0.00 | 0.00 | 75 | 1016.3 |
| 20260505032700 | 61 | 152 | 0.0 | 0.0 | 0.00 | 0.00 | 0.00 | 75 | 1016.2 |
| 20260505032157 | 61 | 152 | 0.0 | 0.0 | 0.00 | 0.00 | 0.00 | 75 | 1016.2 |
| 20260505031657 | 61 | 152 | 0.0 | 4.0 | 0.00 | 0.00 | 0.00 | 75 | 1016.2 |
| 20260505031204 | 61 | 130 | 0.0 | 3.0 | 0.00 | 0.00 | 0.00 | 75 | 1016.3 |
| 20260505030704 | 61 | 151 | 0.0 | 3.0 | 0.00 | 0.00 | 0.00 | 75 | 1016.3 |
| 20260505030157 | 61 | 175 | 1.0 | 3.0 | 0.00 | 0.00 | 0.00 | 75 | 1016.3 |
| 20260505025657 | 61 | 169 | 0.0 | 3.0 | 0.00 | 0.00 | 0.00 | 75 | 1016.3 |
| 20260505025157 | 61 | 169 | 0.0 | 3.0 | 0.00 | 0.00 | 0.00 | 75 | 1016.3 |
| 20260505024657 | 61 | 147 | 0.0 | 0.0 | 0.00 | 0.00 | 0.00 | 76 | 1016.3 |
| 20260505024204 | 61 | 147 | 0.0 | 4.0 | 0.00 | 0.00 | 0.00 | 76 | 1016.4 |
| 20260505023657 | 61 | 113 | 0.0 | 4.0 | 0.00 | 0.00 | 0.00 | 76 | 1016.4 |
| 20260505023200 | 61 | 142 | 1.0 | 5.0 | 0.00 | 0.00 | 0.00 | 76 | 1016.5 |
| 20260505022658 | 61 | 120 | 0.0 | 0.0 | 0.00 | 0.00 | 0.00 | 76 | 1016.5 |
| 20260505022158 | 60 | 161 | 0.0 | 4.0 | 0.00 | 0.00 | 0.00 | 76 | 1016.5 |
| 20260505021700 | 60 | 150 | 0.0 | 1.0 | 0.00 | 0.00 | 0.00 | 77 | 1016.6 |
| 20260505021158 | 60 | 140 | 0.0 | 3.0 | 0.00 | 0.00 | 0.00 | 77 | 1016.7 |
| 20260505020704 | 60 | 163 | 1.0 | 5.0 | 0.00 | 0.00 | 0.00 | 76 | 1016.8 |
| 20260505020156 | 60 | 155 | 0.0 | 0.0 | 0.00 | 0.00 | 0.00 | 77 | 1016.9 |
| 20260505015659 | 61 | 155 | 0.0 | 2.0 | 0.00 | 0.00 | 0.00 | 76 | 1016.8 |
| 20260505015159 | 61 | 155 | 0.0 | 0.0 | 0.00 | 0.00 | 0.00 | 76 | 1016.9 |
| 20260505014656 | 61 | 155 | 0.0 | 0.0 | 0.00 | 0.00 | 0.00 | 76 | 1016.9 |
| 20260505014159 | 61 | 155 | 0.0 | 0.0 | 0.00 | 0.00 | 0.00 | 76 | 1017.0 |
| 20260505013659 | 61 | 155 | 0.0 | 0.0 | 0.00 | 0.00 | 0.00 | 76 | 1016.9 |
| 20260505013202 | 61 | 155 | 0.0 | 0.0 | 0.00 | 0.00 | 0.00 | 76 | 1017.0 |
| 20260505012657 | 61 | 155 | 0.0 | 0.0 | 0.00 | 0.00 | 0.00 | 76 | 1017.1 |
| 20260505012156 | 61 | 155 | 0.0 | 0.0 | 0.00 | 0.00 | 0.00 | 75 | 1017.0 |
| 20260505011656 | 61 | 155 | 0.0 | 3.0 | 0.00 | 0.00 | 0.00 | 75 | 1017.1 |
| 20260505011159 | 61 | 155 | 0.0 | 2.0 | 0.00 | 0.00 | 0.00 | 75 | 1017.1 |
| 20260505010659 | 61 | 155 | 2.0 | 3.0 | 0.00 | 0.00 | 0.00 | 75 | 1017.1 |
| 20260505010156 | 61 | 155 | 0.0 | 0.0 | 0.00 | 0.00 | 0.00 | 76 | 1017.1 |
| 20260505005659 | 61 | 155 | 0.0 | 1.0 | 0.00 | 0.00 | 0.00 | 76 | 1017.1 |
| 20260505005159 | 61 | 155 | 0.0 | 0.0 | 0.00 | 0.00 | 0.00 | 76 | 1017.1 |
| 20260505004656 | 61 | 155 | 0.0 | 1.0 | 0.00 | 0.00 | 0.00 | 76 | 1017.1 |
| 20260505004202 | 61 | 155 | 0.0 | 4.0 | 0.00 | 0.00 | 0.00 | 75 | 1017.1 |
| 20260505003659 | 61 | 153 | 3.0 | 4.0 | 0.00 | 0.00 | 0.00 | 76 | 1017.1 |
| 20260505003159 | 61 | 155 | 0.0 | 3.0 | 0.00 | 0.00 | 0.00 | 76 | 1017.1 |
| 20260505002700 | 61 | 140 | 0.0 | 4.0 | 0.00 | 0.00 | 0.00 | 76 | 1017.1 |
| 20260505002159 | 61 | 132 | 2.0 | 4.0 | 0.00 | 0.00 | 0.00 | 76 | 1017.1 |
| 20260505001657 | 61 | 107 | 2.0 | 5.0 | 0.00 | 0.00 | 0.00 | 76 | 1017.2 |
| 20260505001202 | 61 | 140 | 0.0 | 0.0 | 0.00 | 0.00 | 0.00 | 76 | 1017.2 |
| 20260505000659 | 61 | 180 | 0.0 | 5.0 | 0.00 | 0.00 | 0.00 | 76 | 1017.3 |
| 20260505000159 | 61 | 146 | 0.0 | 4.0 | 0.00 | 0.00 | 0.00 | 76 | 1017.4 |
| 20260504235656 | 61 | 159 | 2.0 | 5.0 | 0.00 | 0.00 | 0.00 | 76 | 1017.4 |
| 20260504235200 | 61 | 159 | 2.0 | 5.0 | 0.00 | 0.00 | 0.00 | 76 | 1017.6 |
| 20260504234700 | 61 | 124 | 0.0 | 3.0 | 0.00 | 0.00 | 0.00 | 76 | 1017.7 |
| 20260504234200 | 62 | 130 | 0.0 | 2.0 | 0.00 | 0.00 | 0.00 | 75 | 1017.7 |
| 20260504233656 | 62 | 130 | 0.0 | 3.0 | 0.00 | 0.00 | 0.00 | 75 | 1017.8 |
| 20260504233156 | 62 | 138 | 3.0 | 3.0 | 0.00 | 0.00 | 0.00 | 75 | 1017.9 |
| 20260504232656 | 62 | 120 | 0.0 | 0.0 | 0.00 | 0.00 | 0.00 | 75 | 1017.9 |
| 20260504232157 | 62 | 118 | 0.0 | 0.0 | 0.00 | 0.00 | 0.00 | 75 | 1017.9 |
| 20260504231657 | 62 | 118 | 0.0 | 2.0 | 0.00 | 0.00 | 0.00 | 75 | 1017.9 |
| 20260504231157 | 62 | 118 | 0.0 | 1.0 | 0.00 | 0.00 | 0.00 | 74 | 1017.9 |
| 20260504230700 | 62 | 118 | 0.0 | 0.0 | 0.00 | 0.00 | 0.00 | 74 | 1018.0 |
| 20260504230157 | 62 | 118 | 0.0 | 1.0 | 0.00 | 0.00 | 0.00 | 73 | 1018.0 |
| 20260504225657 | 63 | 118 | 0.0 | 4.0 | 0.00 | 0.00 | 0.00 | 73 | 1018.0 |
| 20260504225200 | 63 | 207 | 0.0 | 0.0 | 0.00 | 0.00 | 0.00 | 73 | 1018.0 |
| 20260504224656 | 62 | 207 | 0.0 | 0.0 | 0.00 | 0.00 | 0.00 | 73 | 1018.1 |
| 20260504224203 | 62 | 207 | 0.0 | 4.0 | 0.00 | 0.00 | 0.00 | 73 | 1018.2 |
| 20260504223700 | 62 | 138 | 0.0 | 0.0 | 0.00 | 0.00 | 0.00 | 74 | 1018.1 |
| 20260504223157 | 62 | 138 | 0.0 | 0.0 | 0.00 | 0.00 | 0.00 | 74 | 1018.1 |
| 20260504222657 | 62 | 138 | 0.0 | 0.0 | 0.00 | 0.00 | 0.00 | 74 | 1018.2 |
| 20260504222200 | 62 | 138 | 0.0 | 4.0 | 0.00 | 0.00 | 0.00 | 74 | 1018.2 |
| 20260504221700 | 62 | 165 | 4.0 | 5.0 | 0.00 | 0.00 | 0.00 | 74 | 1018.2 |
| 20260504221157 | 62 | 159 | 2.0 | 4.0 | 0.00 | 0.00 | 0.00 | 73 | 1018.2 |
| 20260504220700 | 62 | 127 | 0.0 | 1.0 | 0.00 | 0.00 | 0.00 | 73 | 1018.3 |
| 20260504220200 | 62 | 163 | 0.0 | 5.0 | 0.00 | 0.00 | 0.00 | 73 | 1018.4 |
| 20260504215703 | 62 | 148 | 0.0 | 4.0 | 0.00 | 0.00 | 0.00 | 73 | 1018.5 |
| 20260504215157 | 62 | 134 | 0.0 | 0.0 | 0.00 | 0.00 | 0.00 | 73 | 1018.6 |
| 20260504214657 | 62 | 206 | 0.0 | 0.0 | 0.00 | 0.00 | 0.00 | 72 | 1018.6 |
| 20260504214157 | 62 | 206 | 0.0 | 0.0 | 0.00 | 0.00 | 0.00 | 73 | 1018.6 |
| 20260504213657 | 62 | 171 | 0.0 | 0.0 | 0.00 | 0.00 | 0.00 | 74 | 1018.6 |
| 20260504213157 | 61 | 171 | 0.0 | 2.0 | 0.00 | 0.00 | 0.00 | 74 | 1018.6 |
| 20260504212657 | 61 | 171 | 0.0 | 4.0 | 0.00 | 0.00 | 0.00 | 75 | 1018.6 |
| 20260504212200 | 61 | 167 | 4.0 | 3.0 | 0.00 | 0.00 | 0.00 | 75 | 1018.5 |
| 20260504211700 | 61 | 166 | 2.0 | 5.0 | 0.00 | 0.00 | 0.00 | 75 | 1018.6 |
| 20260504211157 | 61 | 165 | 1.0 | 5.0 | 0.00 | 0.00 | 0.00 | 74 | 1018.6 |
| 20260504210700 | 61 | 111 | 1.0 | 3.0 | 0.00 | 0.00 | 0.00 | 74 | 1018.6 |
| 20260504210157 | 62 | 163 | 0.0 | 3.0 | 0.00 | 0.00 | 0.00 | 74 | 1018.6 |
| 20260504205700 | 62 | 163 | 0.0 | 3.0 | 0.00 | 0.00 | 0.00 | 74 | 1018.6 |
| 20260504205157 | 62 | 163 | 1.0 | 4.0 | 0.00 | 0.00 | 0.00 | 74 | 1018.5 |
| 20260504204657 | 62 | 140 | 0.0 | 2.0 | 0.00 | 0.00 | 0.00 | 74 | 1018.5 |
| 20260504204157 | 62 | 131 | 0.0 | 4.0 | 0.00 | 0.00 | 0.00 | 74 | 1018.5 |
| 20260504203704 | 62 | 164 | 0.0 | 5.0 | 0.00 | 0.00 | 0.00 | 73 | 1018.5 |
| 20260504203200 | 62 | 150 | 0.0 | 5.0 | 0.00 | 0.00 | 0.00 | 73 | 1018.6 |
| 20260504202657 | 62 | 159 | 0.0 | 5.0 | 0.00 | 0.00 | 0.00 | 72 | 1018.8 |
| 20260504202157 | 63 | 134 | 0.0 | 1.0 | 0.00 | 0.00 | 0.00 | 72 | 1018.9 |
| 20260504201657 | 63 | 171 | 0.0 | 2.0 | 0.00 | 0.00 | 0.00 | 72 | 1018.9 |
| 20260504201157 | 63 | 109 | 0.0 | 1.0 | 0.00 | 0.00 | 0.00 | 72 | 1019.0 |
| 20260504200657 | 63 | 109 | 0.0 | 1.0 | 0.00 | 0.00 | 0.00 | 72 | 1018.8 |
| 20260504200200 | 63 | 109 | 0.0 | 0.0 | 0.00 | 0.00 | 0.00 | 72 | 1018.8 |
| 20260504195657 | 63 | 109 | 0.0 | 3.0 | 0.00 | 0.00 | 0.00 | 72 | 1018.7 |
| 20260504195157 | 63 | 134 | 1.0 | 4.0 | 0.00 | 0.00 | 0.00 | 71 | 1018.7 |
| 20260504194657 | 64 | 147 | 2.0 | 4.0 | 0.00 | 0.00 | 0.00 | 69 | 1018.7 |
| 20260504194200 | 64 | 147 | 0.0 | 0.0 | 0.00 | 0.00 | 0.00 | 69 | 1018.6 |
| 20260504193703 | 64 | 221 | 0.0 | 1.0 | 0.00 | 0.00 | 0.00 | 68 | 1018.7 |
| 20260504193157 | 64 | 221 | 0.0 | 0.0 | 0.00 | 0.00 | 0.00 | 68 | 1018.7 |
| 20260504192703 | 64 | 249 | 0.0 | 0.0 | 0.00 | 0.00 | 0.00 | 69 | 1018.6 |
| 20260504192200 | 64 | 159 | 0.0 | 0.0 | 0.00 | 0.00 | 0.00 | 69 | 1018.5 |
| 20260504191657 | 64 | 159 | 0.0 | 0.0 | 0.00 | 0.00 | 0.00 | 70 | 1018.4 |
| 20260504191200 | 64 | 159 | 0.0 | 0.0 | 0.00 | 0.00 | 0.00 | 70 | 1018.4 |
| 20260504190703 | 64 | 159 | 0.0 | 5.0 | 0.00 | 0.00 | 0.00 | 70 | 1018.4 |
| 20260504190157 | 64 | 160 | 0.0 | 3.0 | 0.00 | 0.00 | 0.00 | 70 | 1018.4 |
| 20260504185658 | 64 | 140 | 0.0 | 4.0 | 0.00 | 0.00 | 0.00 | 69 | 1018.3 |
| 20260504185157 | 65 | 150 | 1.0 | 3.0 | 0.00 | 0.00 | 0.00 | 69 | 1018.3 |
| 20260504184700 | 65 | 143 | 0.0 | 3.0 | 0.00 | 0.00 | 0.00 | 70 | 1018.3 |
| 20260504184203 | 65 | 106 | 0.0 | 1.0 | 0.00 | 0.00 | 0.00 | 70 | 1018.3 |
| 20260504183657 | 65 | 106 | 0.0 | 1.0 | 0.00 | 0.00 | 0.00 | 71 | 1018.3 |
| 20260504183158 | 65 | 106 | 0.0 | 2.0 | 0.00 | 0.00 | 0.00 | 73 | 1018.3 |
| 20260504182703 | 65 | 106 | 1.0 | 4.0 | 0.00 | 0.00 | 0.00 | 72 | 1018.3 |
| 20260504182157 | 65 | 106 | 0.0 | 3.0 | 0.00 | 0.00 | 0.00 | 71 | 1018.2 |
| 20260504181657 | 66 | 118 | 2.0 | 3.0 | 0.00 | 0.00 | 0.00 | 71 | 1018.2 |
| 20260504181200 | 66 | 96 | 0.0 | 3.0 | 0.00 | 0.00 | 0.00 | 70 | 1018.2 |
| 20260504180657 | 66 | 110 | 0.0 | 5.0 | 0.00 | 0.00 | 0.00 | 69 | 1018.2 |
| 20260504180204 | 66 | 103 | 1.0 | 5.0 | 0.00 | 0.00 | 0.00 | 67 | 1018.2 |
| 20260504175657 | 66 | 42 | 1.0 | 5.0 | 0.00 | 0.00 | 0.00 | 66 | 1018.2 |
| 20260504175200 | 66 | 50 | 5.0 | 6.0 | 0.00 | 0.00 | 0.00 | 63 | 1018.2 |
| 20260504174700 | 66 | 25 | 2.0 | 4.0 | 0.00 | 0.00 | 0.00 | 60 | 1018.2 |
| 20260504174157 | 66 | 329 | 4.0 | 5.0 | 0.00 | 0.00 | 0.00 | 59 | 1018.2 |
| 20260504173658 | 67 | 355 | 2.0 | 5.0 | 0.00 | 0.00 | 0.00 | 56 | 1018.1 |
| 20260504173200 | 67 | 25 | 5.0 | 6.0 | 0.00 | 0.00 | 0.00 | 54 | 1018.1 |
| 20260504172657 | 67 | 11 | 1.0 | 6.0 | 0.00 | 0.00 | 0.00 | 55 | 1018.1 |
| 20260504172200 | 67 | 355 | 2.0 | 6.0 | 0.00 | 0.00 | 0.00 | 57 | 1018.0 |
| 20260504171657 | 68 | 38 | 2.0 | 9.0 | 0.00 | 0.00 | 0.00 | 55 | 1018.0 |
| 20260504171157 | 68 | 38 | 3.0 | 8.0 | 0.00 | 0.00 | 0.00 | 51 | 1017.9 |
| 20260504170700 | 68 | 31 | 1.0 | 7.0 | 0.00 | 0.00 | 0.00 | 52 | 1017.8 |
| 20260504170200 | 68 | 20 | 1.0 | 6.0 | 0.00 | 0.00 | 0.00 | 54 | 1017.8 |
| 20260504160157 | 69 | 44 | 7.0 | 8.0 | 0.00 | 0.00 | 0.00 | 50 | 1017.7 |
| 20260504150657 | 70 | 33 | 6.0 | 7.0 | 0.00 | 0.00 | 0.00 | 53 | 1017.9 |
| 20260504150200 | 70 | 306 | 5.0 | 9.0 | 0.00 | 0.00 | 0.00 | 53 | 1018.0 |
| 20260504141200 | 71 | 333 | 6.0 | 9.0 | 0.00 | 0.00 | 0.00 | 52 | 1018.2 |
| 20260504140701 | 71 | 15 | 5.0 | 12.0 | 0.00 | 0.00 | 0.00 | 51 | 1018.2 |
| 20260504140203 | 70 | 319 | 5.0 | 9.0 | 0.00 | 0.00 | 0.00 | 52 | 1018.3 |
| 20260504130700 | 70 | 355 | 1.0 | 9.0 | 0.00 | 0.00 | 0.00 | 48 | 1019.0 |
| 20260504130157 | 71 | 5 | 4.0 | 8.0 | 0.00 | 0.00 | 0.00 | 47 | 1019.0 |
| 20260504120133 | 71 | 59 | 7.0 | 10.0 | 0.00 | 0.00 | 0.00 | 39 | 1019.2 |
| 20260504110626 | 71 | 339 | 3.0 | 9.0 | 0.00 | 0.00 | 0.00 | 50 | 1019.5 |
| 20260504110129 | 71 | 306 | 6.0 | 9.0 | 0.00 | 0.00 | 0.00 | 49 | 1019.5 |
| 20260504100129 | 70 | 118 | 4.0 | 9.0 | 0.00 | 0.00 | 0.00 | 53 | 1020.3 |